| time (UTC) | temp F | wind direction | speed MPH | gust MPH | rain 1hr in | rain 24hr in | rain mn in | humidity % | barometer mb |
| 20260508095507 | 45 | 264 | 0.0 | 0.0 | 0.00 | 0.03 | 0.03 | 83 | 1012.1 |
| 20260508095011 | 45 | 264 | 0.0 | 0.0 | 0.00 | 0.03 | 0.03 | 82 | 1012.1 |
| 20260508094522 | 45 | 264 | 0.0 | 0.0 | 0.01 | 0.03 | 0.03 | 82 | 1012.1 |
| 20260508094009 | 45 | 264 | 0.0 | 0.0 | 0.01 | 0.03 | 0.03 | 82 | 1012.1 |
| 20260508093511 | 46 | 264 | 0.0 | 0.0 | 0.01 | 0.03 | 0.03 | 82 | 1012.2 |
| 20260508093034 | 46 | 264 | 0.0 | 0.0 | 0.01 | 0.03 | 0.03 | 82 | 1012.2 |
| 20260508092510 | 46 | 264 | 0.0 | 0.0 | 0.01 | 0.03 | 0.03 | 81 | 1012.3 |
| 20260508092011 | 46 | 264 | 0.0 | 0.0 | 0.01 | 0.03 | 0.03 | 82 | 1012.3 |
| 20260508091528 | 46 | 264 | 0.0 | 0.0 | 0.01 | 0.03 | 0.03 | 82 | 1012.4 |
| 20260508091008 | 46 | 264 | 0.0 | 0.0 | 0.01 | 0.03 | 0.03 | 81 | 1012.4 |
| 20260508090508 | 47 | 264 | 0.0 | 1.0 | 0.01 | 0.03 | 0.03 | 81 | 1012.5 |
| 20260508090024 | 47 | 264 | 0.0 | 3.0 | 0.01 | 0.03 | 0.03 | 80 | 1012.5 |
| 20260508085507 | 47 | 315 | 1.0 | 3.0 | 0.01 | 0.03 | 0.03 | 78 | 1012.6 |
| 20260508085009 | 46 | 294 | 1.0 | 3.0 | 0.01 | 0.03 | 0.03 | 80 | 1012.7 |
| 20260508084522 | 46 | 248 | 0.0 | 2.0 | 0.00 | 0.02 | 0.02 | 79 | 1012.8 |
| 20260508084011 | 46 | 210 | 0.0 | 0.0 | 0.00 | 0.02 | 0.02 | 78 | 1012.6 |
| 20260508083507 | 46 | 191 | 0.0 | 2.0 | 0.00 | 0.02 | 0.02 | 78 | 1012.5 |
| 20260508083025 | 46 | 186 | 0.0 | 3.0 | 0.00 | 0.02 | 0.02 | 78 | 1012.3 |
| 20260508082511 | 46 | 184 | 1.0 | 3.0 | 0.00 | 0.02 | 0.02 | 79 | 1012.1 |
| 20260508082012 | 46 | 166 | 2.0 | 3.0 | 0.00 | 0.02 | 0.02 | 78 | 1012.4 |
| 20260508081527 | 45 | 191 | 1.0 | 3.0 | 0.00 | 0.02 | 0.02 | 79 | 1012.5 |
| 20260508081003 | 45 | 189 | 1.0 | 2.0 | 0.00 | 0.02 | 0.02 | 79 | 1012.4 |
| 20260508080506 | 45 | 192 | 0.0 | 0.0 | 0.00 | 0.02 | 0.02 | 80 | 1012.4 |
| 20260508080014 | 45 | 194 | 0.0 | 0.0 | 0.00 | 0.02 | 0.02 | 80 | 1012.4 |
| 20260508075508 | 45 | 194 | 0.0 | 0.0 | 0.00 | 0.02 | 0.02 | 80 | 1012.4 |
| 20260508075008 | 45 | 194 | 0.0 | 0.0 | 0.00 | 0.02 | 0.02 | 80 | 1012.4 |
| 20260508074518 | 45 | 194 | 0.0 | 0.0 | 0.00 | 0.02 | 0.02 | 79 | 1012.5 |
| 20260508074008 | 45 | 194 | 0.0 | 0.0 | 0.00 | 0.02 | 0.02 | 79 | 1012.5 |
| 20260508073507 | 46 | 194 | 0.0 | 0.0 | 0.00 | 0.02 | 0.02 | 79 | 1012.6 |
| 20260508073024 | 46 | 187 | 0.0 | 0.0 | 0.00 | 0.02 | 0.02 | 78 | 1012.6 |
| 20260508072511 | 46 | 195 | 0.0 | 0.0 | 0.00 | 0.02 | 0.02 | 79 | 1012.6 |
| 20260508072014 | 46 | 205 | 0.0 | 0.0 | 0.00 | 0.02 | 0.02 | 79 | 1012.8 |
| 20260508071532 | 46 | 196 | 0.0 | 0.0 | 0.00 | 0.02 | 0.02 | 79 | 1012.7 |
| 20260508071012 | 46 | 193 | 0.0 | 0.0 | 0.00 | 0.02 | 0.02 | 79 | 1012.8 |
| 20260508070513 | 46 | 193 | 0.0 | 2.0 | 0.00 | 0.02 | 0.02 | 79 | 1012.8 |
| 20260508070015 | 46 | 193 | 0.0 | 2.0 | 0.01 | 0.02 | 0.02 | 79 | 1012.9 |
| 20260508065506 | 46 | 205 | 0.0 | 3.0 | 0.01 | 0.02 | 0.02 | 79 | 1012.9 |
| 20260508065015 | 46 | 205 | 0.0 | 3.0 | 0.01 | 0.02 | 0.02 | 78 | 1012.9 |
| 20260508064519 | 46 | 198 | 1.0 | 3.0 | 0.01 | 0.02 | 0.02 | 78 | 1013.1 |
| 20260508064011 | 46 | 190 | 0.0 | 2.0 | 0.01 | 0.02 | 0.02 | 79 | 1013.2 |
| 20260508063509 | 46 | 190 | 0.0 | 2.0 | 0.01 | 0.02 | 0.02 | 79 | 1013.2 |
| 20260508063022 | 46 | 192 | 0.0 | 2.0 | 0.01 | 0.02 | 0.02 | 78 | 1013.2 |
| 20260508062510 | 46 | 205 | 0.0 | 0.0 | 0.02 | 0.02 | 0.02 | 78 | 1013.2 |
| 20260508062010 | 46 | 204 | 0.0 | 0.0 | 0.02 | 0.02 | 0.02 | 76 | 1013.1 |
| 20260508061523 | 46 | 192 | 0.0 | 3.0 | 0.02 | 0.02 | 0.02 | 77 | 1013.1 |
| 20260508061008 | 45 | 188 | 0.0 | 3.0 | 0.02 | 0.02 | 0.02 | 79 | 1013.0 |
| 20260508060507 | 45 | 186 | 0.0 | 0.0 | 0.02 | 0.02 | 0.02 | 80 | 1013.0 |
| 20260508060028 | 45 | 186 | 0.0 | 0.0 | 0.01 | 0.01 | 0.01 | 81 | 1013.0 |
| 20260508055508 | 45 | 186 | 0.0 | 0.0 | 0.01 | 0.01 | 0.01 | 81 | 1013.0 |
| 20260508055012 | 45 | 172 | 0.0 | 0.0 | 0.01 | 0.01 | 0.01 | 83 | 1013.0 |
| 20260508054534 | 46 | 169 | 0.0 | 0.0 | 0.01 | 0.01 | 0.01 | 84 | 1013.0 |
| 20260508054007 | 46 | 169 | 0.0 | 0.0 | 0.01 | 0.01 | 0.01 | 81 | 1013.1 |
| 20260508053506 | 46 | 169 | 0.0 | 0.0 | 0.01 | 0.01 | 0.01 | 78 | 1013.1 |
| 20260508053025 | 46 | 169 | 0.0 | 0.0 | 0.01 | 0.01 | 0.01 | 77 | 1013.2 |
| 20260508052507 | 46 | 188 | 0.0 | 0.0 | 0.00 | 0.00 | 0.00 | 74 | 1013.5 |
| 20260508052011 | 46 | 162 | 0.0 | 0.0 | 0.00 | 0.00 | 0.00 | 76 | 1013.3 |
| 20260508051522 | 46 | 162 | 0.0 | 0.0 | 0.00 | 0.00 | 0.00 | 75 | 1013.3 |
| 20260508051004 | 46 | 162 | 0.0 | 0.0 | 0.00 | 0.00 | 0.00 | 74 | 1013.4 |
| 20260508050504 | 46 | 162 | 0.0 | 0.0 | 0.00 | 0.00 | 0.00 | 73 | 1013.3 |
| 20260508050005 | 46 | 162 | 0.0 | 0.0 | 0.00 | 0.00 | 0.00 | 77 | 1013.4 |
| 20260508045502 | 47 | 162 | 0.0 | 0.0 | 0.00 | 0.00 | 0.00 | 76 | 1013.3 |
| 20260508045002 | 47 | 162 | 0.0 | 0.0 | 0.00 | 0.00 | 0.00 | 74 | 1013.3 |
| 20260508044504 | 47 | 162 | 0.0 | 0.0 | 0.00 | 0.00 | 0.00 | 72 | 1013.3 |
| 20260508044004 | 47 | 162 | 0.0 | 0.0 | 0.00 | 0.00 | 0.00 | 70 | 1013.3 |
| 20260508043506 | 47 | 162 | 0.0 | 0.0 | 0.00 | 0.00 | 0.00 | 71 | 1013.2 |
| 20260508043004 | 47 | 162 | 0.0 | 0.0 | 0.00 | 0.00 | 0.00 | 72 | 1013.2 |
| 20260508042506 | 47 | 162 | 0.0 | 0.0 | 0.00 | 0.00 | 0.00 | 73 | 1013.2 |
| 20260508042006 | 47 | 150 | 0.0 | 0.0 | 0.00 | 0.00 | 0.00 | 73 | 1013.2 |
| 20260508041003 | 48 | 136 | 0.0 | 0.0 | 0.00 | 0.00 | 0.00 | 73 | 1013.5 |
| 20260508040504 | 48 | 136 | 0.0 | 0.0 | 0.00 | 0.00 | 0.00 | 69 | 1013.5 |
| 20260508035504 | 48 | 250 | 0.0 | 0.0 | 0.00 | 0.00 | 0.00 | 69 | 1013.7 |
| 20260508035005 | 48 | 250 | 0.0 | 0.0 | 0.00 | 0.00 | 0.00 | 68 | 1013.6 |
| 20260508034511 | 48 | 250 | 0.0 | 0.0 | 0.00 | 0.00 | 0.00 | 68 | 1013.7 |
| 20260508034006 | 48 | 250 | 0.0 | 0.0 | 0.00 | 0.00 | 0.00 | 68 | 1013.6 |
| 20260508033503 | 48 | 250 | 0.0 | 0.0 | 0.00 | 0.00 | 0.00 | 65 | 1013.6 |
| 20260508033006 | 49 | 250 | 0.0 | 0.0 | 0.00 | 0.00 | 0.00 | 64 | 1013.6 |
| 20260508032503 | 49 | 250 | 0.0 | 0.0 | 0.00 | 0.00 | 0.00 | 65 | 1013.5 |
| 20260508032004 | 49 | 250 | 0.0 | 0.0 | 0.00 | 0.00 | 0.00 | 67 | 1013.6 |
| 20260508031510 | 49 | 250 | 0.0 | 0.0 | 0.00 | 0.00 | 0.00 | 65 | 1013.6 |
| 20260508031003 | 49 | 250 | 0.0 | 0.0 | 0.00 | 0.00 | 0.00 | 63 | 1013.6 |
| 20260508030503 | 49 | 250 | 0.0 | 0.0 | 0.00 | 0.00 | 0.00 | 64 | 1013.6 |
| 20260508030004 | 49 | 250 | 0.0 | 0.0 | 0.00 | 0.00 | 0.00 | 63 | 1013.7 |
| 20260508025502 | 48 | 244 | 0.0 | 0.0 | 0.00 | 0.00 | 0.00 | 64 | 1013.7 |
| 20260508025002 | 48 | 244 | 0.0 | 0.0 | 0.00 | 0.00 | 0.00 | 63 | 1013.7 |
| 20260508024508 | 48 | 236 | 0.0 | 0.0 | 0.00 | 0.00 | 0.00 | 67 | 1013.7 |
| 20260508024003 | 47 | 194 | 0.0 | 0.0 | 0.00 | 0.00 | 0.00 | 68 | 1013.7 |
| 20260508023505 | 47 | 244 | 0.0 | 0.0 | 0.00 | 0.00 | 0.00 | 70 | 1013.6 |
| 20260508023008 | 46 | 123 | 0.0 | 0.0 | 0.00 | 0.00 | 0.00 | 68 | 1013.6 |
| 20260508022506 | 46 | 122 | 0.0 | 0.0 | 0.00 | 0.00 | 0.00 | 73 | 1013.5 |
| 20260508022004 | 45 | 122 | 0.0 | 0.0 | 0.00 | 0.00 | 0.00 | 74 | 1013.5 |
| 20260508021509 | 45 | 123 | 0.0 | 0.0 | 0.00 | 0.00 | 0.00 | 76 | 1013.5 |
| 20260508021004 | 45 | 123 | 0.0 | 0.0 | 0.00 | 0.00 | 0.00 | 75 | 1013.4 |
| 20260508020504 | 45 | 122 | 0.0 | 0.0 | 0.00 | 0.00 | 0.00 | 76 | 1013.4 |
| 20260508020008 | 45 | 122 | 0.0 | 0.0 | 0.00 | 0.00 | 0.00 | 70 | 1013.3 |
| 20260508015503 | 45 | 122 | 0.0 | 0.0 | 0.00 | 0.00 | 0.00 | 70 | 1013.2 |
| 20260508015005 | 45 | 122 | 0.0 | 0.0 | 0.00 | 0.00 | 0.00 | 72 | 1013.2 |
| 20260508014506 | 46 | 123 | 0.0 | 0.0 | 0.00 | 0.00 | 0.00 | 70 | 1013.2 |
| 20260508014003 | 46 | 123 | 0.0 | 0.0 | 0.00 | 0.00 | 0.00 | 70 | 1013.2 |
| 20260508013503 | 46 | 123 | 0.0 | 0.0 | 0.00 | 0.00 | 0.00 | 70 | 1013.2 |
| 20260508013009 | 46 | 122 | 0.0 | 0.0 | 0.00 | 0.00 | 0.00 | 70 | 1013.1 |
| 20260508012508 | 46 | 123 | 0.0 | 0.0 | 0.00 | 0.00 | 0.00 | 65 | 1013.1 |
| 20260508012004 | 47 | 123 | 0.0 | 0.0 | 0.00 | 0.00 | 0.00 | 66 | 1013.0 |
| 20260508011511 | 47 | 123 | 0.0 | 0.0 | 0.00 | 0.00 | 0.00 | 66 | 1012.8 |
| 20260508011007 | 47 | 123 | 0.0 | 0.0 | 0.00 | 0.00 | 0.00 | 63 | 1012.9 |
| 20260508010503 | 48 | 122 | 0.0 | 0.0 | 0.00 | 0.00 | 0.00 | 67 | 1012.9 |
| 20260508010024 | 48 | 122 | 0.0 | 0.0 | 0.00 | 0.00 | 0.00 | 62 | 1012.8 |
| 20260508005507 | 48 | 122 | 0.0 | 0.0 | 0.00 | 0.00 | 0.00 | 60 | 1012.7 |
| 20260508005007 | 48 | 123 | 0.0 | 0.0 | 0.00 | 0.00 | 0.00 | 59 | 1012.6 |
| 20260508004522 | 49 | 123 | 0.0 | 0.0 | 0.00 | 0.00 | 0.00 | 59 | 1012.5 |
| 20260508004008 | 49 | 123 | 0.0 | 0.0 | 0.00 | 0.00 | 0.00 | 60 | 1012.6 |
| 20260508003506 | 50 | 122 | 0.0 | 0.0 | 0.00 | 0.00 | 0.00 | 55 | 1012.5 |
| 20260508003012 | 50 | 122 | 0.0 | 0.0 | 0.00 | 0.00 | 0.00 | 57 | 1012.4 |
| 20260508002006 | 51 | 122 | 0.0 | 0.0 | 0.00 | 0.00 | 0.00 | 56 | 1012.4 |
| 20260508001513 | 51 | 123 | 0.0 | 0.0 | 0.00 | 0.00 | 0.00 | 54 | 1012.3 |
| 20260508001003 | 52 | 123 | 0.0 | 0.0 | 0.00 | 0.00 | 0.00 | 55 | 1012.3 |
| 20260508000507 | 52 | 123 | 0.0 | 0.0 | 0.00 | 0.00 | 0.00 | 52 | 1012.2 |
| 20260508000014 | 52 | 295 | 0.0 | 0.0 | 0.00 | 0.00 | 0.00 | 52 | 1012.2 |
| 20260507235504 | 52 | 295 | 0.0 | 0.0 | 0.00 | 0.00 | 0.00 | 53 | 1012.2 |
| 20260507235006 | 52 | 295 | 0.0 | 0.0 | 0.00 | 0.00 | 0.00 | 51 | 1012.2 |
| 20260507234512 | 53 | 288 | 0.0 | 0.0 | 0.00 | 0.00 | 0.00 | 49 | 1012.1 |
| 20260507234007 | 53 | 284 | 0.0 | 0.0 | 0.00 | 0.00 | 0.00 | 46 | 1012.1 |
| 20260507233506 | 53 | 296 | 0.0 | 0.0 | 0.00 | 0.00 | 0.00 | 48 | 1012.1 |
| 20260507233011 | 53 | 17 | 0.0 | 3.0 | 0.00 | 0.00 | 0.00 | 47 | 1012.2 |
| 20260507232512 | 54 | 271 | 0.0 | 3.0 | 0.00 | 0.00 | 0.00 | 45 | 1012.2 |
| 20260507230507 | 55 | 291 | 1.0 | 4.0 | 0.00 | 0.00 | 0.00 | 45 | 1012.2 |
| 20260507230021 | 55 | 306 | 0.0 | 4.0 | 0.00 | 0.00 | 0.00 | 48 | 1012.2 |
| 20260507225505 | 55 | 276 | 0.0 | 2.0 | 0.00 | 0.00 | 0.00 | 45 | 1012.2 |
| 20260507225008 | 55 | 307 | 0.0 | 2.0 | 0.00 | 0.00 | 0.00 | 49 | 1012.3 |
| 20260507224517 | 55 | 270 | 0.0 | 3.0 | 0.00 | 0.00 | 0.00 | 47 | 1012.2 |
| 20260507224006 | 55 | 273 | 1.0 | 3.0 | 0.00 | 0.00 | 0.00 | 44 | 1012.2 |
| 20260507223505 | 55 | 13 | 0.0 | 2.0 | 0.00 | 0.00 | 0.00 | 49 | 1012.3 |
| 20260507223015 | 55 | 331 | 0.0 | 3.0 | 0.00 | 0.00 | 0.00 | 47 | 1012.2 |
| 20260507222507 | 55 | 313 | 0.0 | 4.0 | 0.00 | 0.00 | 0.00 | 47 | 1012.3 |
| 20260507222009 | 56 | 326 | 1.0 | 4.0 | 0.00 | 0.00 | 0.00 | 47 | 1012.3 |
| 20260507221518 | 56 | 340 | 1.0 | 3.0 | 0.00 | 0.00 | 0.00 | 47 | 1012.3 |
| 20260507221007 | 56 | 281 | 0.0 | 3.0 | 0.00 | 0.00 | 0.00 | 48 | 1012.3 |
| 20260507215507 | 55 | 304 | 1.0 | 4.0 | 0.00 | 0.00 | 0.00 | 48 | 1012.1 |
| 20260507215005 | 55 | 274 | 1.0 | 4.0 | 0.00 | 0.00 | 0.00 | 45 | 1012.2 |
| 20260507214519 | 55 | 284 | 1.0 | 3.0 | 0.00 | 0.00 | 0.00 | 47 | 1012.2 |
| 20260507214006 | 56 | 319 | 1.0 | 3.0 | 0.00 | 0.00 | 0.00 | 47 | 1012.2 |
| 20260507213510 | 56 | 271 | 2.0 | 4.0 | 0.00 | 0.00 | 0.00 | 47 | 1012.2 |
| 20260507213016 | 56 | 259 | 0.0 | 4.0 | 0.00 | 0.00 | 0.00 | 46 | 1012.2 |
| 20260507212506 | 57 | 261 | 1.0 | 3.0 | 0.00 | 0.00 | 0.00 | 46 | 1012.1 |
| 20260507212010 | 56 | 252 | 1.0 | 3.0 | 0.00 | 0.00 | 0.00 | 48 | 1012.0 |
| 20260507211524 | 56 | 280 | 0.0 | 3.0 | 0.00 | 0.00 | 0.00 | 47 | 1012.0 |
| 20260507211007 | 56 | 284 | 1.0 | 3.0 | 0.00 | 0.00 | 0.00 | 47 | 1011.9 |
| 20260507210507 | 55 | 290 | 1.0 | 3.0 | 0.00 | 0.00 | 0.00 | 48 | 1011.9 |
| 20260507210020 | 55 | 300 | 1.0 | 4.0 | 0.00 | 0.00 | 0.00 | 50 | 1011.9 |
| 20260507205008 | 55 | 281 | 1.0 | 3.0 | 0.00 | 0.00 | 0.00 | 55 | 1011.8 |
| 20260507204008 | 55 | 279 | 1.0 | 3.0 | 0.00 | 0.00 | 0.00 | 50 | 1012.0 |
| 20260507203508 | 55 | 345 | 1.0 | 3.0 | 0.00 | 0.00 | 0.00 | 50 | 1012.0 |
| 20260507203021 | 55 | 281 | 1.0 | 3.0 | 0.00 | 0.00 | 0.00 | 51 | 1011.8 |
| 20260507202509 | 55 | 287 | 0.0 | 3.0 | 0.00 | 0.00 | 0.00 | 53 | 1011.7 |
| 20260507202008 | 55 | 271 | 1.0 | 3.0 | 0.00 | 0.00 | 0.00 | 53 | 1011.8 |
| 20260507201517 | 55 | 250 | 0.0 | 3.0 | 0.00 | 0.00 | 0.00 | 50 | 1011.7 |
| 20260507201007 | 54 | 250 | 1.0 | 3.0 | 0.00 | 0.00 | 0.00 | 47 | 1012.0 |
| 20260507200504 | 55 | 276 | 2.0 | 4.0 | 0.00 | 0.00 | 0.00 | 49 | 1012.1 |
| 20260507200006 | 55 | 255 | 1.0 | 4.0 | 0.00 | 0.00 | 0.00 | 49 | 1012.0 |
| 20260507195503 | 56 | 260 | 1.0 | 3.0 | 0.00 | 0.00 | 0.00 | 51 | 1011.8 |
| 20260507195003 | 56 | 267 | 1.0 | 6.0 | 0.00 | 0.00 | 0.00 | 54 | 1011.9 |
| 20260507194511 | 56 | 288 | 2.0 | 6.0 | 0.00 | 0.00 | 0.00 | 54 | 1011.9 |
| 20260507194004 | 57 | 258 | 1.0 | 4.0 | 0.00 | 0.00 | 0.00 | 54 | 1011.9 |
| 20260507193504 | 56 | 253 | 1.0 | 5.0 | 0.00 | 0.00 | 0.00 | 46 | 1011.9 |
| 20260507193018 | 56 | 288 | 1.0 | 5.0 | 0.00 | 0.00 | 0.00 | 48 | 1012.0 |
| 20260507192509 | 56 | 167 | 1.0 | 3.0 | 0.00 | 0.00 | 0.00 | 50 | 1012.0 |
| 20260507192009 | 55 | 288 | 1.0 | 3.0 | 0.00 | 0.00 | 0.00 | 52 | 1012.0 |
| 20260507191519 | 55 | 261 | 1.0 | 3.0 | 0.00 | 0.00 | 0.00 | 49 | 1012.0 |
| 20260507191006 | 55 | 305 | 1.0 | 6.0 | 0.00 | 0.00 | 0.00 | 56 | 1012.0 |
| 20260507190502 | 55 | 240 | 1.0 | 6.0 | 0.00 | 0.00 | 0.00 | 50 | 1012.0 |
| 20260507190005 | 54 | 341 | 2.0 | 4.0 | 0.00 | 0.00 | 0.00 | 52 | 1012.2 |
| 20260507185504 | 55 | 313 | 1.0 | 3.0 | 0.00 | 0.00 | 0.00 | 49 | 1012.1 |
| 20260507185003 | 56 | 274 | 2.0 | 5.0 | 0.00 | 0.00 | 0.00 | 49 | 1012.1 |
| 20260507184513 | 56 | 309 | 1.0 | 5.0 | 0.00 | 0.00 | 0.00 | 50 | 1012.1 |
| 20260507184004 | 56 | 78 | 1.0 | 3.0 | 0.00 | 0.00 | 0.00 | 50 | 1012.2 |
| 20260507183508 | 56 | 261 | 1.0 | 3.0 | 0.00 | 0.00 | 0.00 | 49 | 1012.2 |
| 20260507183026 | 56 | 321 | 2.0 | 3.0 | 0.00 | 0.00 | 0.00 | 53 | 1012.2 |
| 20260507182506 | 57 | 252 | 2.0 | 6.0 | 0.00 | 0.00 | 0.00 | 47 | 1012.2 |
| 20260507182010 | 57 | 262 | 2.0 | 6.0 | 0.00 | 0.00 | 0.00 | 50 | 1012.2 |
| 20260507181515 | 56 | 246 | 1.0 | 3.0 | 0.00 | 0.00 | 0.00 | 53 | 1012.2 |
| 20260507181007 | 56 | 173 | 1.0 | 5.0 | 0.00 | 0.00 | 0.00 | 51 | 1012.3 |
| 20260507180506 | 55 | 250 | 2.0 | 5.0 | 0.00 | 0.00 | 0.00 | 53 | 1012.3 |
| 20260507180027 | 55 | 267 | 0.0 | 3.0 | 0.00 | 0.00 | 0.00 | 51 | 1012.3 |
| 20260507175516 | 56 | 312 | 1.0 | 3.0 | 0.00 | 0.00 | 0.00 | 49 | 1012.4 |
| 20260507175002 | 56 | 185 | 1.0 | 4.0 | 0.00 | 0.00 | 0.00 | 49 | 1012.3 |
| 20260507174511 | 56 | 272 | 2.0 | 7.0 | 0.00 | 0.00 | 0.00 | 49 | 1012.3 |
| 20260507174003 | 57 | 340 | 1.0 | 7.0 | 0.00 | 0.00 | 0.00 | 49 | 1012.3 |
| 20260507173504 | 57 | 211 | 2.0 | 5.0 | 0.00 | 0.00 | 0.00 | 44 | 1012.2 |
| 20260507173013 | 57 | 250 | 2.0 | 4.0 | 0.00 | 0.00 | 0.00 | 48 | 1012.3 |
| 20260507172504 | 56 | 246 | 1.0 | 4.0 | 0.00 | 0.00 | 0.00 | 50 | 1012.3 |
| 20260507172008 | 56 | 148 | 1.0 | 4.0 | 0.00 | 0.00 | 0.00 | 50 | 1012.4 |
| 20260507171518 | 56 | 276 | 0.0 | 4.0 | 0.00 | 0.00 | 0.00 | 46 | 1012.3 |
| 20260507171007 | 56 | 273 | 1.0 | 3.0 | 0.00 | 0.00 | 0.00 | 51 | 1012.4 |
| 20260507170513 | 56 | 348 | 1.0 | 3.0 | 0.00 | 0.00 | 0.00 | 51 | 1012.4 |
| 20260507170022 | 55 | 12 | 0.0 | 3.0 | 0.00 | 0.00 | 0.00 | 54 | 1012.4 |
| 20260507165509 | 56 | 287 | 2.0 | 3.0 | 0.00 | 0.00 | 0.00 | 49 | 1012.4 |
| 20260507165010 | 56 | 87 | 1.0 | 3.0 | 0.00 | 0.00 | 0.00 | 48 | 1012.4 |
| 20260507164527 | 56 | 351 | 1.0 | 3.0 | 0.00 | 0.00 | 0.00 | 52 | 1012.4 |
| 20260507164009 | 55 | 250 | 1.0 | 3.0 | 0.00 | 0.00 | 0.00 | 48 | 1012.4 |
| 20260507163504 | 56 | 223 | 1.0 | 3.0 | 0.00 | 0.00 | 0.00 | 49 | 1012.5 |
| 20260507163012 | 55 | 219 | 0.0 | 3.0 | 0.00 | 0.00 | 0.00 | 51 | 1012.5 |
| 20260507162507 | 55 | 269 | 1.0 | 3.0 | 0.00 | 0.00 | 0.00 | 52 | 1012.7 |
| 20260507162008 | 56 | 282 | 1.0 | 3.0 | 0.00 | 0.00 | 0.00 | 50 | 1012.5 |
| 20260507161513 | 56 | 250 | 1.0 | 3.0 | 0.00 | 0.00 | 0.00 | 53 | 1012.5 |
| 20260507161008 | 55 | 302 | 1.0 | 4.0 | 0.00 | 0.00 | 0.00 | 50 | 1012.6 |
| 20260507160508 | 56 | 286 | 1.0 | 4.0 | 0.00 | 0.00 | 0.00 | 52 | 1012.6 |
| 20260507160035 | 56 | 346 | 1.0 | 4.0 | 0.00 | 0.00 | 0.00 | 48 | 1012.5 |
| 20260507155508 | 55 | 300 | 1.0 | 3.0 | 0.00 | 0.00 | 0.00 | 50 | 1012.6 |
| 20260507155009 | 55 | 278 | 1.0 | 3.0 | 0.00 | 0.00 | 0.00 | 48 | 1012.6 |
| 20260507154524 | 56 | 291 | 1.0 | 3.0 | 0.00 | 0.00 | 0.00 | 49 | 1012.6 |
| 20260507154010 | 55 | 286 | 1.0 | 3.0 | 0.00 | 0.00 | 0.00 | 51 | 1012.6 |
| 20260507153512 | 55 | 267 | 1.0 | 4.0 | 0.00 | 0.00 | 0.00 | 52 | 1012.6 |
| 20260507153023 | 55 | 263 | 1.0 | 4.0 | 0.00 | 0.00 | 0.00 | 45 | 1012.5 |
| 20260507152509 | 56 | 296 | 1.0 | 4.0 | 0.00 | 0.00 | 0.00 | 53 | 1012.5 |
| 20260507152004 | 55 | 254 | 0.0 | 3.0 | 0.00 | 0.00 | 0.00 | 55 | 1012.6 |
| 20260507151512 | 55 | 178 | 1.0 | 3.0 | 0.00 | 0.00 | 0.00 | 49 | 1012.6 |
| 20260507151008 | 55 | 169 | 1.0 | 3.0 | 0.00 | 0.00 | 0.00 | 50 | 1012.6 |
| 20260507150507 | 55 | 284 | 1.0 | 2.0 | 0.00 | 0.00 | 0.00 | 57 | 1012.7 |
| 20260507150020 | 55 | 261 | 1.0 | 2.0 | 0.00 | 0.00 | 0.00 | 53 | 1012.7 |
| 20260507145510 | 55 | 259 | 0.0 | 2.0 | 0.00 | 0.00 | 0.00 | 54 | 1012.7 |
| 20260507145005 | 54 | 281 | 0.0 | 2.0 | 0.00 | 0.00 | 0.00 | 56 | 1012.7 |
| 20260507144528 | 54 | 192 | 1.0 | 2.0 | 0.00 | 0.00 | 0.00 | 51 | 1012.7 |
| 20260507144007 | 54 | 244 | 0.0 | 2.0 | 0.00 | 0.00 | 0.00 | 53 | 1012.7 |
| 20260507143507 | 54 | 253 | 0.0 | 2.0 | 0.00 | 0.00 | 0.00 | 57 | 1012.8 |
| 20260507143023 | 54 | 253 | 1.0 | 2.0 | 0.00 | 0.00 | 0.00 | 63 | 1012.8 |
| 20260507142509 | 54 | 294 | 1.0 | 2.0 | 0.00 | 0.00 | 0.00 | 61 | 1012.8 |
| 20260507142013 | 53 | 221 | 1.0 | 2.0 | 0.00 | 0.00 | 0.00 | 59 | 1012.8 |
| 20260507141526 | 53 | 212 | 1.0 | 3.0 | 0.00 | 0.00 | 0.00 | 59 | 1012.9 |
| 20260507141010 | 52 | 277 | 1.0 | 3.0 | 0.00 | 0.00 | 0.00 | 62 | 1012.9 |
| 20260507140504 | 52 | 263 | 0.0 | 0.0 | 0.00 | 0.00 | 0.00 | 62 | 1012.9 |
| 20260507140013 | 51 | 259 | 0.0 | 0.0 | 0.00 | 0.00 | 0.00 | 65 | 1012.9 |
| 20260507135505 | 51 | 239 | 0.0 | 0.0 | 0.00 | 0.00 | 0.00 | 68 | 1013.1 |
| 20260507135005 | 51 | 248 | 0.0 | 1.0 | 0.00 | 0.00 | 0.00 | 65 | 1013.1 |
| 20260507134516 | 50 | 288 | 0.0 | 2.0 | 0.00 | 0.00 | 0.00 | 68 | 1013.1 |
| 20260507134007 | 49 | 285 | 0.0 | 2.0 | 0.00 | 0.00 | 0.00 | 71 | 1013.2 |
| 20260507133508 | 49 | 334 | 0.0 | 2.0 | 0.00 | 0.00 | 0.00 | 71 | 1013.2 |
| 20260507133021 | 48 | 344 | 0.0 | 2.0 | 0.00 | 0.00 | 0.00 | 72 | 1013.2 |
| 20260507132510 | 48 | 222 | 0.0 | 0.0 | 0.00 | 0.00 | 0.00 | 74 | 1013.3 |
| 20260507132009 | 47 | 182 | 0.0 | 0.0 | 0.00 | 0.00 | 0.00 | 74 | 1013.2 |
| 20260507131523 | 47 | 167 | 0.0 | 0.0 | 0.00 | 0.00 | 0.00 | 76 | 1013.2 |
| 20260507131009 | 47 | 215 | 0.0 | 0.0 | 0.00 | 0.00 | 0.00 | 76 | 1013.2 |
| 20260507130507 | 47 | 209 | 0.0 | 0.0 | 0.00 | 0.00 | 0.00 | 76 | 1013.2 |
| 20260507130029 | 46 | 273 | 0.0 | 0.0 | 0.00 | 0.00 | 0.00 | 76 | 1013.2 |
| 20260507125513 | 46 | 273 | 0.0 | 0.0 | 0.00 | 0.00 | 0.00 | 75 | 1013.2 |
| 20260507125011 | 46 | 261 | 0.0 | 0.0 | 0.00 | 0.00 | 0.00 | 78 | 1013.2 |
| 20260507124518 | 46 | 292 | 0.0 | 0.0 | 0.00 | 0.00 | 0.00 | 78 | 1013.2 |
| 20260507124005 | 46 | 269 | 0.0 | 0.0 | 0.00 | 0.00 | 0.00 | 79 | 1013.3 |
| 20260507123506 | 45 | 244 | 0.0 | 0.0 | 0.00 | 0.00 | 0.00 | 80 | 1013.2 |
| 20260507123019 | 45 | 165 | 0.0 | 0.0 | 0.00 | 0.00 | 0.00 | 80 | 1013.2 |
| 20260507122507 | 45 | 188 | 0.0 | 0.0 | 0.00 | 0.00 | 0.00 | 80 | 1013.2 |
| 20260507122009 | 44 | 255 | 0.0 | 0.0 | 0.00 | 0.00 | 0.00 | 81 | 1013.1 |
| 20260507121522 | 44 | 224 | 0.0 | 0.0 | 0.00 | 0.00 | 0.00 | 80 | 1013.1 |
| 20260507121010 | 44 | 191 | 0.0 | 3.0 | 0.00 | 0.00 | 0.00 | 81 | 1013.1 |
| 20260507120510 | 44 | 105 | 0.0 | 3.0 | 0.00 | 0.00 | 0.00 | 81 | 1013.0 |
| 20260507120023 | 44 | 182 | 0.0 | 2.0 | 0.00 | 0.00 | 0.00 | 82 | 1012.9 |
| 20260507115508 | 43 | 195 | 0.0 | 2.0 | 0.00 | 0.00 | 0.00 | 82 | 1013.0 |
| 20260507115012 | 43 | 199 | 0.0 | 2.0 | 0.00 | 0.00 | 0.00 | 83 | 1012.9 |
| 20260507114529 | 43 | 192 | 0.0 | 2.0 | 0.00 | 0.00 | 0.00 | 83 | 1012.9 |
| 20260507114010 | 43 | 184 | 0.0 | 2.0 | 0.00 | 0.00 | 0.00 | 84 | 1013.0 |
| 20260507113506 | 42 | 178 | 0.0 | 2.0 | 0.00 | 0.00 | 0.00 | 85 | 1013.0 |
| 20260507113019 | 42 | 181 | 0.0 | 0.0 | 0.00 | 0.00 | 0.00 | 86 | 1012.9 |
| 20260507112510 | 41 | 181 | 0.0 | 0.0 | 0.00 | 0.00 | 0.00 | 87 | 1012.9 |
| 20260507112010 | 41 | 154 | 0.0 | 0.0 | 0.00 | 0.00 | 0.00 | 87 | 1012.9 |
| 20260507111519 | 40 | 154 | 0.0 | 0.0 | 0.00 | 0.00 | 0.00 | 87 | 1012.8 |
| 20260507111002 | 40 | 154 | 0.0 | 0.0 | 0.00 | 0.00 | 0.00 | 87 | 1012.9 |
| 20260507110502 | 40 | 154 | 0.0 | 0.0 | 0.00 | 0.00 | 0.00 | 87 | 1012.8 |
| 20260507110023 | 40 | 144 | 0.0 | 0.0 | 0.00 | 0.00 | 0.00 | 87 | 1012.8 |
| 20260507105503 | 40 | 128 | 0.0 | 0.0 | 0.00 | 0.00 | 0.00 | 87 | 1012.8 |
| 20260507105005 | 39 | 360 | 0.0 | 0.0 | 0.00 | 0.00 | 0.00 | 88 | 1012.8 |
| 20260507104510 | 39 | 360 | 0.0 | 0.0 | 0.00 | 0.00 | 0.00 | 88 | 1012.7 |
| 20260507104008 | 39 | 360 | 0.0 | 0.0 | 0.00 | 0.00 | 0.00 | 88 | 1012.7 |
| 20260507103507 | 39 | 360 | 0.0 | 0.0 | 0.00 | 0.00 | 0.00 | 88 | 1012.7 |
| 20260507103004 | 39 | 360 | 0.0 | 0.0 | 0.00 | 0.00 | 0.00 | 88 | 1012.6 |
| 20260507102503 | 39 | 360 | 0.0 | 0.0 | 0.00 | 0.00 | 0.00 | 88 | 1012.6 |
| 20260507102003 | 39 | 360 | 0.0 | 0.0 | 0.00 | 0.00 | 0.00 | 89 | 1012.7 |
| 20260507101504 | 39 | 360 | 0.0 | 0.0 | 0.00 | 0.00 | 0.00 | 89 | 1012.7 |
| 20260507101003 | 39 | 360 | 0.0 | 0.0 | 0.00 | 0.00 | 0.00 | 89 | 1012.6 |
| 20260507100501 | 39 | 360 | 0.0 | 0.0 | 0.00 | 0.00 | 0.00 | 89 | 1012.6 |
| 20260507100006 | 39 | 360 | 0.0 | 0.0 | 0.00 | 0.00 | 0.00 | 89 | 1012.5 |